OneWeb SL0033

operational
NORAD ID: 45142 Int'l Des: 2020-008 Owner: ONEWEB Country: UK Constellation: oneweb
LEOCIRCULARPOLARONEWEB_TYPE

关于 OneWeb SL0033

正在加载描述...

实时位置

正在加载3D地球...

即将过境

高度历史

Altitude vs Time

uPlot chart will show altitude changes over time

两行轨道根数

1 45142U 20008M 25257.55497675 -.00000234 00000-0 -70764-3 0 9993
2 45142 87.8735 91.2545 0001534 92.0064 268.1239 13.10371275272110
Epoch: Sep 14, 2025 • Age: 20 hours

当前状态

高度 1250.5 km
速度 7.23 km/s
星下点 -76.75°S, 151.26°E
发射日期 Feb 6, 2020
运行时间 5.6 years
类型 internet

技术详情

分类 Payload
质量 148.00 kg
干质量 140.00 kg
总质量 148.00 kg
长度 1.30 m
直径 1.00 m
跨度 5.00 m
形状 Trapezoid+2 pan
制造商 ONEWUS
平台类型 ARROW
阶段状态 In Orbit
所有者/国家 ONEWEB/UK

大型星座

Loading constellations...